BRU891 UMMS-EDDB

Flight info

Callsign BRU891
Flight time 1h 35m
Altitude 40000
Route OSMUS N869 GORAT N869 MULZA T174 INDIG L980 KELOD L979 GOVEN T205 NUKRO
Aircraft A332/H-SDE3GHIJ2J3J5M1RVWXY/LB2D1

Departure

Time 2026-05-07 13:06
Airport Minsk National Airport (UMMS)

Arrival

Time 2026-05-07 14:41
Airport Berlin Brandenburg Airport (EDDB)
Time Latitude Longitude Altitude Speed Heading
2026-05-07 12:37 53.88884 28.03507 673 ft 0 kts 330°
2026-05-07 12:52 53.88871 28.03520 671 ft 4 kts 330°
2026-05-07 12:52 53.88851 28.03540 670 ft 4 kts 323°
2026-05-07 12:53 53.88837 28.03571 673 ft 4 kts 269°
2026-05-07 12:53 53.88845 28.03611 669 ft 4 kts 234°
2026-05-07 12:53 53.88852 28.03628 673 ft 0 kts 229°
2026-05-07 12:55 53.88843 28.03610 673 ft 5 kts 229°
2026-05-07 12:56 53.88808 28.03542 673 ft 9 kts 229°
2026-05-07 12:56 53.88764 28.03456 673 ft 10 kts 229°
2026-05-07 12:56 53.88722 28.03374 673 ft 10 kts 229°
2026-05-07 12:56 53.88675 28.03302 673 ft 6 kts 198°
2026-05-07 12:57 53.88634 28.03327 673 ft 7 kts 139°
2026-05-07 12:57 53.88624 28.03342 673 ft 0 kts 140°
2026-05-07 12:57 53.88622 28.03344 673 ft 0 kts 140°
2026-05-07 12:57 53.88621 28.03346 673 ft 1 kts 140°
2026-05-07 12:58 53.88613 28.03357 671 ft 0 kts 139°
2026-05-07 12:58 53.88606 28.03368 673 ft 1 kts 139°
2026-05-07 12:58 53.88583 28.03411 673 ft 8 kts 130°
2026-05-07 12:58 53.88541 28.03469 673 ft 9 kts 139°
2026-05-07 12:59 53.88530 28.03561 673 ft 9 kts 68°
2026-05-07 12:59 53.88583 28.03677 673 ft 16 kts 48°
2026-05-07 12:59 53.88646 28.03796 673 ft 13 kts 48°
2026-05-07 12:59 53.88714 28.03925 673 ft 16 kts 49°
2026-05-07 13:00 53.88766 28.04026 672 ft 19 kts 49°
2026-05-07 13:00 53.88857 28.04199 673 ft 21 kts 48°
2026-05-07 13:00 53.88956 28.04388 673 ft 22 kts 48°
2026-05-07 13:00 53.89063 28.04593 673 ft 24 kts 48°
2026-05-07 13:01 53.89173 28.04799 673 ft 13 kts 47°
2026-05-07 13:01 53.89182 28.04925 671 ft 12 kts 127°
2026-05-07 13:01 53.89118 28.05022 673 ft 13 kts 139°
2026-05-07 13:01 53.89044 28.05129 673 ft 15 kts 139°
2026-05-07 13:02 53.88954 28.05260 673 ft 18 kts 138°
2026-05-07 13:02 53.88852 28.05413 673 ft 21 kts 139°
2026-05-07 13:02 53.88738 28.05581 673 ft 23 kts 139°
2026-05-07 13:02 53.88616 28.05760 673 ft 24 kts 139°
2026-05-07 13:03 53.88485 28.05954 671 ft 26 kts 139°
2026-05-07 13:03 53.88347 28.06160 673 ft 27 kts 139°
2026-05-07 13:03 53.88202 28.06375 673 ft 28 kts 139°
2026-05-07 13:03 53.88052 28.06598 673 ft 29 kts 137°
2026-05-07 13:04 53.87960 28.06743 673 ft 10 kts 122°
2026-05-07 13:04 53.87963 28.06873 673 ft 15 kts 63°
2026-05-07 13:04 53.88038 28.06978 670 ft 11 kts 13°
2026-05-07 13:04 53.88094 28.06939 670 ft 9 kts 319°
2026-05-07 13:05 53.88163 28.06839 670 ft 26 kts 319°
2026-05-07 13:05 53.88478 28.06367 667 ft 95 kts 318°
2026-05-07 13:05 53.89136 28.05392 669 ft 155 kts 319°
2026-05-07 13:05 53.90068 28.04044 988 ft 188 kts 319°
2026-05-07 13:06 53.91088 28.02563 1786 ft 197 kts 315°
2026-05-07 13:06 53.92153 28.00987 2552 ft 210 kts 313°
2026-05-07 13:06 53.93271 27.99309 3447 ft 217 kts 312°
2026-05-07 13:06 53.94386 27.97572 4381 ft 218 kts 310°
2026-05-07 13:07 53.95486 27.95700 5072 ft 234 kts 309°
2026-05-07 13:07 53.96684 27.93596 5517 ft 259 kts 308°
2026-05-07 13:07 53.97915 27.91290 6310 ft 265 kts 301°
2026-05-07 13:07 53.98777 27.88554 7266 ft 261 kts 282°
2026-05-07 13:08 53.98999 27.85559 8304 ft 255 kts 264°
2026-05-07 13:08 53.98778 27.82562 9311 ft 256 kts 255°
2026-05-07 13:08 53.98333 27.79617 10226 ft 260 kts 250°
2026-05-07 13:08 53.97753 27.76594 10712 ft 280 kts 249°
2026-05-07 13:09 53.97080 27.73362 11160 ft 298 kts 248°
2026-05-07 13:09 53.96379 27.69987 11885 ft 306 kts 249°
2026-05-07 13:09 53.95685 27.66539 12745 ft 311 kts 249°
2026-05-07 13:09 53.94999 27.63027 13611 ft 315 kts 250°
2026-05-07 13:10 53.94319 27.59463 14373 ft 319 kts 250°
2026-05-07 13:10 53.93637 27.55850 15138 ft 323 kts 250°
2026-05-07 13:10 53.92950 27.52189 15897 ft 328 kts 250°
2026-05-07 13:10 53.92262 27.48527 16651 ft 332 kts 250°
2026-05-07 13:11 53.91546 27.44718 17434 ft 337 kts 251°
2026-05-07 13:11 53.90836 27.40962 18182 ft 341 kts 251°
2026-05-07 13:11 53.90107 27.37111 18833 ft 345 kts 250°
2026-05-07 13:11 53.89368 27.33221 19490 ft 348 kts 250°
2026-05-07 13:12 53.88622 27.29309 20144 ft 351 kts 250°
2026-05-07 13:12 53.87867 27.25356 20784 ft 354 kts 250°
2026-05-07 13:12 53.87102 27.21363 21411 ft 357 kts 250°
2026-05-07 13:12 53.86330 27.17341 22037 ft 361 kts 250°
2026-05-07 13:13 53.85549 27.13283 22665 ft 364 kts 250°
2026-05-07 13:13 53.84760 27.09189 23273 ft 367 kts 250°
2026-05-07 13:13 53.83963 27.05061 23806 ft 370 kts 250°
2026-05-07 13:13 53.83160 27.00911 24299 ft 373 kts 250°
2026-05-07 13:14 53.82349 26.96727 24817 ft 375 kts 250°
2026-05-07 13:14 53.81531 26.92515 25326 ft 377 kts 250°
2026-05-07 13:14 53.80707 26.88283 25840 ft 380 kts 250°
2026-05-07 13:14 53.79876 26.84027 26317 ft 382 kts 250°
2026-05-07 13:15 53.79038 26.79745 26772 ft 385 kts 250°
2026-05-07 13:15 53.78192 26.75432 27239 ft 388 kts 250°
2026-05-07 13:15 53.77339 26.71092 27721 ft 390 kts 250°
2026-05-07 13:15 53.76480 26.66728 28189 ft 392 kts 250°
2026-05-07 13:16 53.75616 26.62351 28662 ft 395 kts 250°
2026-05-07 13:16 53.74743 26.57940 29132 ft 397 kts 250°
2026-05-07 13:16 53.73863 26.53503 29579 ft 400 kts 250°
2026-05-07 13:16 53.72976 26.49039 30008 ft 402 kts 250°
2026-05-07 13:17 53.72080 26.44545 30388 ft 404 kts 250°
2026-05-07 13:17 53.71180 26.40034 30766 ft 407 kts 250°
2026-05-07 13:17 53.70273 26.35501 31151 ft 409 kts 250°
2026-05-07 13:17 53.69360 26.30954 31536 ft 411 kts 250°
2026-05-07 13:18 53.68439 26.26373 31929 ft 413 kts 250°
2026-05-07 13:18 53.67514 26.21782 32426 ft 413 kts 250°
2026-05-07 13:18 53.66591 26.17212 33036 ft 410 kts 250°
2026-05-07 13:18 53.65672 26.12667 33560 ft 409 kts 250°
2026-05-07 13:19 53.64754 26.08143 34041 ft 407 kts 250°
2026-05-07 13:19 53.63686 26.02895 34480 ft 407 kts 250°
2026-05-07 13:19 53.62767 25.98390 34831 ft 407 kts 250°
2026-05-07 13:19 53.61846 25.93881 35185 ft 408 kts 250°
2026-05-07 13:20 53.60923 25.89368 35591 ft 407 kts 250°
2026-05-07 13:20 53.59997 25.84858 35935 ft 407 kts 250°
2026-05-07 13:20 53.59067 25.80346 36265 ft 408 kts 250°
2026-05-07 13:20 53.58137 25.75841 36597 ft 408 kts 250°
2026-05-07 13:21 53.57204 25.71331 36920 ft 408 kts 250°
2026-05-07 13:21 53.56269 25.66822 37289 ft 408 kts 250°
2026-05-07 13:21 53.55333 25.62314 37611 ft 408 kts 250°
2026-05-07 13:21 53.54395 25.57806 37931 ft 408 kts 250°
2026-05-07 13:22 53.53454 25.53299 38237 ft 409 kts 250°
2026-05-07 13:22 53.52513 25.48794 38577 ft 408 kts 249°
2026-05-07 13:22 53.51571 25.44303 38846 ft 408 kts 249°
2026-05-07 13:22 53.50625 25.39797 39068 ft 409 kts 249°
2026-05-07 13:23 53.49673 25.35277 39274 ft 410 kts 249°
2026-05-07 13:23 53.48719 25.30756 39452 ft 411 kts 249°
2026-05-07 13:23 53.47763 25.26236 39661 ft 412 kts 249°
2026-05-07 13:23 53.46802 25.21699 39823 ft 414 kts 249°
2026-05-07 13:24 53.45179 25.14067 39870 ft 422 kts 249°
2026-05-07 13:24 53.43199 25.04793 39862 ft 423 kts 249°
2026-05-07 13:25 53.40888 24.94017 39868 ft 422 kts 249°
2026-05-07 13:25 53.39218 24.86268 39866 ft 423 kts 249°
2026-05-07 13:26 53.37214 24.77007 39853 ft 423 kts 249°
2026-05-07 13:26 53.35217 24.67819 39856 ft 423 kts 249°
2026-05-07 13:27 53.33199 24.58579 39854 ft 423 kts 249°
2026-05-07 13:27 53.31175 24.49350 39853 ft 423 kts 249°
2026-05-07 13:28 53.29143 24.40129 39852 ft 423 kts 249°
2026-05-07 13:28 53.27107 24.30927 39850 ft 423 kts 248°
2026-05-07 13:29 53.25061 24.21721 39861 ft 423 kts 248°
2026-05-07 13:29 53.23006 24.12516 39856 ft 423 kts 248°
2026-05-07 13:30 53.20942 24.03312 39860 ft 423 kts 248°
2026-05-07 13:30 53.18872 23.94119 39865 ft 423 kts 248°
2026-05-07 13:31 53.16706 23.85000 39863 ft 423 kts 245°
2026-05-07 13:31 53.14327 23.76043 39865 ft 423 kts 244°
2026-05-07 13:32 53.11905 23.67111 39863 ft 423 kts 244°
2026-05-07 13:32 53.09499 23.58203 39870 ft 422 kts 245°
2026-05-07 13:33 53.07103 23.49293 39875 ft 422 kts 244°
2026-05-07 13:33 53.04700 23.40378 39873 ft 423 kts 244°
2026-05-07 13:34 53.01078 23.27001 39875 ft 423 kts 244°
2026-05-07 13:35 52.98654 23.18099 39875 ft 423 kts 244°
2026-05-07 13:35 52.96225 23.09208 39886 ft 423 kts 244°
2026-05-07 13:36 52.93806 23.00389 39886 ft 423 kts 244°
2026-05-07 13:36 52.91353 22.91530 39890 ft 423 kts 243°
2026-05-07 13:37 52.88836 22.82655 39888 ft 423 kts 243°
2026-05-07 13:37 52.86334 22.73916 39898 ft 424 kts 243°
2026-05-07 13:38 52.83803 22.65095 39897 ft 425 kts 243°
2026-05-07 13:38 52.81267 22.56270 39896 ft 425 kts 243°
2026-05-07 13:39 52.78729 22.47470 39903 ft 424 kts 243°
2026-05-07 13:39 52.76197 22.38661 39904 ft 425 kts 243°
2026-05-07 13:40 52.73710 22.29817 39906 ft 425 kts 243°
2026-05-07 13:40 52.71229 22.20977 39910 ft 424 kts 243°
2026-05-07 13:41 52.68738 22.12153 39911 ft 424 kts 243°
2026-05-07 13:41 52.66235 22.03335 39910 ft 425 kts 243°
2026-05-07 13:42 52.63727 21.94539 39911 ft 424 kts 243°
2026-05-07 13:42 52.61212 21.85749 39919 ft 424 kts 243°
2026-05-07 13:43 52.59172 21.76637 39916 ft 427 kts 255°
2026-05-07 13:43 52.58377 21.66918 39927 ft 430 kts 262°
2026-05-07 13:44 52.57906 21.57102 39927 ft 431 kts 263°
2026-05-07 13:44 52.57485 21.47340 39930 ft 431 kts 263°
2026-05-07 13:45 52.57033 21.37517 39943 ft 432 kts 262°
2026-05-07 13:45 52.56555 21.27675 39935 ft 432 kts 262°
2026-05-07 13:46 52.56062 21.17837 39944 ft 432 kts 262°
2026-05-07 13:46 52.55561 21.08004 39949 ft 432 kts 262°
2026-05-07 13:47 52.55053 20.98185 39956 ft 432 kts 262°
2026-05-07 13:47 52.54537 20.88359 39976 ft 432 kts 262°
2026-05-07 13:48 52.54011 20.78510 39964 ft 433 kts 262°
2026-05-07 13:48 52.53476 20.68639 39965 ft 434 kts 262°
2026-05-07 13:49 52.52933 20.58767 39952 ft 434 kts 262°
2026-05-07 13:49 52.52382 20.48899 39958 ft 434 kts 262°
2026-05-07 13:50 52.51823 20.39039 39960 ft 434 kts 261°
2026-05-07 13:50 52.51259 20.29241 39965 ft 434 kts 262°
2026-05-07 13:51 52.50683 20.19372 39968 ft 434 kts 261°
2026-05-07 13:51 52.50098 20.09498 39968 ft 435 kts 261°
2026-05-07 13:52 52.49505 19.99623 39960 ft 435 kts 261°
2026-05-07 13:52 52.48904 19.89753 39971 ft 435 kts 261°
2026-05-07 13:53 52.48294 19.79896 39971 ft 435 kts 261°
2026-05-07 13:53 52.47677 19.70033 39973 ft 435 kts 261°
2026-05-07 13:54 52.47051 19.60172 39979 ft 435 kts 261°
2026-05-07 13:54 52.46417 19.50316 39968 ft 434 kts 261°
2026-05-07 13:55 52.45774 19.40464 39981 ft 435 kts 261°
2026-05-07 13:55 52.45124 19.30620 39982 ft 434 kts 261°
2026-05-07 13:56 52.44465 19.20769 39978 ft 435 kts 261°
2026-05-07 13:56 52.43796 19.10901 39972 ft 436 kts 261°
2026-05-07 13:57 52.43118 19.01011 39981 ft 437 kts 260°
2026-05-07 13:57 52.42431 18.91121 39981 ft 437 kts 260°
2026-05-07 13:58 52.41736 18.81221 39982 ft 437 kts 260°
2026-05-07 13:58 52.41032 18.71318 39986 ft 437 kts 260°
2026-05-07 13:59 52.40320 18.61437 39990 ft 437 kts 260°
2026-05-07 13:59 52.39600 18.51551 39991 ft 437 kts 260°
2026-05-07 14:00 52.38871 18.41667 39989 ft 437 kts 260°
2026-05-07 14:00 52.38134 18.31782 39996 ft 437 kts 260°
2026-05-07 14:01 52.37389 18.21912 39995 ft 437 kts 260°
2026-05-07 14:01 52.36641 18.12108 40007 ft 437 kts 259°
2026-05-07 14:02 52.35874 18.02162 39997 ft 439 kts 259°
2026-05-07 14:02 52.35106 17.92321 39992 ft 439 kts 259°
2026-05-07 14:03 52.34324 17.82410 39997 ft 439 kts 259°
2026-05-07 14:03 52.33534 17.72502 40000 ft 439 kts 259°
2026-05-07 14:04 52.32736 17.62602 39998 ft 439 kts 259°
2026-05-07 14:04 52.31929 17.52702 40003 ft 440 kts 259°
2026-05-07 14:05 52.31109 17.42762 39999 ft 442 kts 259°
2026-05-07 14:05 52.30281 17.32807 39999 ft 442 kts 259°
2026-05-07 14:06 52.29445 17.22860 40009 ft 442 kts 259°
2026-05-07 14:06 52.28599 17.12907 40007 ft 442 kts 259°
2026-05-07 14:07 52.27746 17.02969 40025 ft 442 kts 259°
2026-05-07 14:07 52.26884 16.93031 40007 ft 442 kts 259°
2026-05-07 14:08 52.26016 16.83110 39776 ft 437 kts 259°
2026-05-07 14:08 52.25587 16.78232 39544 ft 432 kts 258°
2026-05-07 14:08 52.25162 16.73418 39313 ft 427 kts 258°
2026-05-07 14:08 52.24735 16.68621 38885 ft 426 kts 258°
2026-05-07 14:09 52.24305 16.63826 38346 ft 428 kts 258°
2026-05-07 14:09 52.23872 16.59029 37824 ft 427 kts 258°
2026-05-07 14:09 52.23440 16.54254 37337 ft 425 kts 257°
2026-05-07 14:09 52.23008 16.49496 36860 ft 424 kts 257°
2026-05-07 14:10 52.22573 16.44740 36353 ft 424 kts 258°
2026-05-07 14:10 52.22137 16.39983 35842 ft 424 kts 257°
2026-05-07 14:10 52.21699 16.35225 35284 ft 425 kts 257°
2026-05-07 14:10 52.21257 16.30452 34719 ft 426 kts 257°
2026-05-07 14:11 52.20812 16.25667 34033 ft 429 kts 257°
2026-05-07 14:11 52.20361 16.20836 33244 ft 431 kts 256°
2026-05-07 14:11 52.19907 16.15999 32527 ft 432 kts 256°
2026-05-07 14:11 52.19451 16.11159 31800 ft 432 kts 256°
2026-05-07 14:12 52.18995 16.06326 31044 ft 433 kts 256°
2026-05-07 14:12 52.18536 16.01486 30463 ft 430 kts 256°
2026-05-07 14:12 52.18083 15.96706 29960 ft 424 kts 256°
2026-05-07 14:12 52.17784 15.93574 29628 ft 421 kts 257°
2026-05-07 14:13 52.17334 15.88883 29068 ft 417 kts 257°
2026-05-07 14:13 52.16886 15.84245 28527 ft 412 kts 257°
2026-05-07 14:13 52.16441 15.79655 27998 ft 408 kts 257°
2026-05-07 14:13 52.15998 15.75108 27483 ft 404 kts 257°
2026-05-07 14:14 52.15557 15.70612 26974 ft 400 kts 257°
2026-05-07 14:14 52.15120 15.66166 26450 ft 397 kts 258°
2026-05-07 14:14 52.14682 15.61729 25913 ft 395 kts 258°
2026-05-07 14:14 52.14246 15.57339 25402 ft 392 kts 258°
2026-05-07 14:15 52.13812 15.52967 24892 ft 390 kts 258°
2026-05-07 14:15 52.13377 15.48616 24374 ft 389 kts 258°
2026-05-07 14:15 52.12943 15.44283 23850 ft 387 kts 258°
2026-05-07 14:15 52.12509 15.39967 23309 ft 386 kts 259°
2026-05-07 14:16 52.12076 15.35675 22772 ft 383 kts 259°
2026-05-07 14:16 52.11646 15.31418 22262 ft 380 kts 259°
2026-05-07 14:16 52.11217 15.27198 21753 ft 377 kts 259°
2026-05-07 14:16 52.10791 15.23017 21257 ft 373 kts 259°
2026-05-07 14:17 52.10366 15.18867 20751 ft 371 kts 259°
2026-05-07 14:17 52.09942 15.14748 20272 ft 368 kts 259°
2026-05-07 14:17 52.09521 15.10658 19786 ft 365 kts 259°
2026-05-07 14:17 52.09100 15.06595 19300 ft 363 kts 258°
2026-05-07 14:18 52.08681 15.02557 18817 ft 361 kts 258°
2026-05-07 14:18 52.08263 14.98548 18332 ft 358 kts 258°
2026-05-07 14:18 52.07847 14.94572 17826 ft 355 kts 258°
2026-05-07 14:18 52.07434 14.90639 17312 ft 351 kts 258°
2026-05-07 14:19 52.07030 14.86800 16855 ft 348 kts 258°
2026-05-07 14:19 52.06623 14.82945 16387 ft 345 kts 258°
2026-05-07 14:19 52.06217 14.79120 15913 ft 342 kts 258°
2026-05-07 14:19 52.05920 14.75314 15552 ft 338 kts 264°
2026-05-07 14:20 52.05759 14.71549 15277 ft 330 kts 265°
2026-05-07 14:20 52.05625 14.67846 14880 ft 327 kts 265°
2026-05-07 14:20 52.05500 14.64172 14461 ft 324 kts 265°
2026-05-07 14:20 52.05381 14.60534 14055 ft 322 kts 265°
2026-05-07 14:21 52.05264 14.56912 13621 ft 320 kts 265°
2026-05-07 14:21 52.05147 14.53321 13190 ft 317 kts 265°
2026-05-07 14:21 52.05032 14.49770 12789 ft 313 kts 265°
2026-05-07 14:21 52.04918 14.46258 12397 ft 310 kts 265°
2026-05-07 14:22 52.04817 14.42779 12018 ft 308 kts 268°
2026-05-07 14:22 52.04931 14.39221 11862 ft 323 kts 274°
2026-05-07 14:22 52.05161 14.35547 11747 ft 329 kts 275°
2026-05-07 14:22 52.05412 14.31857 11590 ft 328 kts 275°
2026-05-07 14:23 52.05663 14.28188 11437 ft 327 kts 275°
2026-05-07 14:23 52.05906 14.24518 11294 ft 327 kts 275°
2026-05-07 14:23 52.06148 14.20848 11139 ft 326 kts 275°
2026-05-07 14:23 52.06391 14.17180 10990 ft 326 kts 275°
2026-05-07 14:24 52.06633 14.13526 10848 ft 325 kts 275°
2026-05-07 14:24 52.06874 14.09877 10710 ft 325 kts 275°
2026-05-07 14:24 52.07112 14.06233 10549 ft 324 kts 275°
2026-05-07 14:24 52.07348 14.02598 10204 ft 324 kts 275°
2026-05-07 14:25 52.07581 13.98978 9851 ft 317 kts 275°
2026-05-07 14:25 52.07806 13.95488 9655 ft 304 kts 275°
2026-05-07 14:25 52.08020 13.92135 9445 ft 292 kts 275°
2026-05-07 14:25 52.08225 13.88902 9185 ft 284 kts 275°
2026-05-07 14:26 52.08425 13.85731 8825 ft 281 kts 275°
2026-05-07 14:26 52.08623 13.82543 8244 ft 286 kts 275°
2026-05-07 14:26 52.08825 13.79320 7894 ft 284 kts 275°
2026-05-07 14:26 52.09023 13.76142 7642 ft 282 kts 275°
2026-05-07 14:27 52.09220 13.72963 7393 ft 282 kts 275°
2026-05-07 14:27 52.09416 13.69789 7155 ft 281 kts 275°
2026-05-07 14:27 52.09610 13.66637 7048 ft 280 kts 275°
2026-05-07 14:27 52.09804 13.63554 7034 ft 267 kts 276°
2026-05-07 14:28 52.10019 13.60606 7039 ft 260 kts 277°
2026-05-07 14:28 52.10240 13.57688 6875 ft 259 kts 277°
2026-05-07 14:28 52.10460 13.54790 6624 ft 257 kts 277°
2026-05-07 14:28 52.10680 13.51903 6376 ft 257 kts 277°
2026-05-07 14:29 52.10898 13.49020 6127 ft 256 kts 277°
2026-05-07 14:29 52.11114 13.46170 6045 ft 253 kts 277°
2026-05-07 14:29 52.11327 13.43332 6041 ft 253 kts 277°
2026-05-07 14:29 52.11541 13.40490 6045 ft 253 kts 277°
2026-05-07 14:30 52.11753 13.37650 6043 ft 253 kts 278°
2026-05-07 14:30 52.12136 13.34870 6022 ft 251 kts 294°
2026-05-07 14:30 52.12998 13.32459 5823 ft 244 kts 307°
2026-05-07 14:30 52.13998 13.30271 5599 ft 238 kts 309°
2026-05-07 14:31 52.14985 13.28179 5416 ft 235 kts 309°
2026-05-07 14:31 52.15977 13.26069 5130 ft 235 kts 309°
2026-05-07 14:31 52.16964 13.23956 4812 ft 235 kts 308°
2026-05-07 14:31 52.17931 13.21820 4506 ft 234 kts 304°
2026-05-07 14:32 52.18534 13.19423 4287 ft 226 kts 280°
2026-05-07 14:32 52.18429 13.16917 4093 ft 222 kts 255°
2026-05-07 14:32 52.17932 13.14599 4087 ft 210 kts 251°
2026-05-07 14:32 52.17696 13.12331 4063 ft 199 kts 274°
2026-05-07 14:33 52.18028 13.10218 4075 ft 191 kts 301°
2026-05-07 14:33 52.18887 13.08620 3985 ft 188 kts 326°
2026-05-07 14:33 52.20034 13.07590 3935 ft 190 kts 336°
2026-05-07 14:33 52.21246 13.06696 3870 ft 191 kts 339°
2026-05-07 14:34 52.22457 13.05900 3706 ft 184 kts 348°
2026-05-07 14:34 52.23694 13.05986 3481 ft 177 kts 14°
2026-05-07 14:34 52.24689 13.07069 3220 ft 173 kts 48°
2026-05-07 14:34 52.25364 13.08681 3026 ft 173 kts 60°
2026-05-07 14:35 52.25873 13.10470 2994 ft 174 kts 66°
2026-05-07 14:35 52.26317 13.12307 2994 ft 174 kts 67°
2026-05-07 14:35 52.26752 13.14144 2991 ft 174 kts 67°
2026-05-07 14:35 52.27191 13.15988 2993 ft 174 kts 67°
2026-05-07 14:36 52.27629 13.17818 2992 ft 173 kts 67°
2026-05-07 14:36 52.28067 13.19648 2994 ft 173 kts 67°
2026-05-07 14:36 52.28506 13.21481 2994 ft 173 kts 67°
2026-05-07 14:36 52.28930 13.23259 2986 ft 161 kts 67°
2026-05-07 14:37 52.29323 13.24911 2989 ft 153 kts 67°
2026-05-07 14:37 52.30088 13.28126 2670 ft 151 kts 67°
2026-05-07 14:37 52.30467 13.29720 2455 ft 151 kts 67°
2026-05-07 14:38 52.30848 13.31322 2231 ft 152 kts 66°
2026-05-07 14:38 52.31230 13.32926 2025 ft 151 kts 67°
2026-05-07 14:38 52.31594 13.34459 1811 ft 137 kts 67°
2026-05-07 14:38 52.31922 13.35838 1630 ft 124 kts 67°
2026-05-07 14:39 52.32229 13.37130 1474 ft 121 kts 66°
2026-05-07 14:39 52.32534 13.38409 1313 ft 121 kts 67°
2026-05-07 14:39 52.32839 13.39692 1134 ft 121 kts 66°
2026-05-07 14:39 52.33141 13.40972 979 ft 121 kts 69°
2026-05-07 14:40 52.33441 13.42255 784 ft 120 kts 69°
2026-05-07 14:40 52.33745 13.43520 649 ft 120 kts 68°
2026-05-07 14:40 52.34053 13.44778 471 ft 119 kts 69°
2026-05-07 14:40 52.34355 13.46042 329 ft 120 kts 69°
2026-05-07 14:41 52.34651 13.47299 203 ft 117 kts 70°
2026-05-07 14:41 52.34927 13.48453 158 ft 93 kts 70°
2026-05-07 14:41 52.35107 13.49220 158 ft 59 kts 69°
2026-05-07 14:41 52.35221 13.49701 158 ft 26 kts 68°
2026-05-07 14:42 52.35309 13.49900 158 ft 21 kts 40°
2026-05-07 14:42 52.35408 13.50035 158 ft 18 kts 40°
2026-05-07 14:42 52.35503 13.50164 158 ft 17 kts 39°
2026-05-07 14:42 52.35577 13.50262 158 ft 11 kts 42°
2026-05-07 14:43 52.35619 13.50378 158 ft 13 kts 69°
2026-05-07 14:43 52.35655 13.50529 158 ft 15 kts 69°
2026-05-07 14:43 52.35691 13.50666 158 ft 8 kts 54°
2026-05-07 14:43 52.35742 13.50686 160 ft 8 kts 348°
2026-05-07 14:44 52.35812 13.50642 158 ft 13 kts 339°
2026-05-07 14:44 52.35903 13.50584 158 ft 9 kts 339°
2026-05-07 14:44 52.35951 13.50554 158 ft 9 kts 340°
2026-05-07 14:44 52.35994 13.50526 158 ft 5 kts 328°
2026-05-07 14:45 52.36002 13.50477 158 ft 5 kts 261°
2026-05-07 14:45 52.35984 13.50415 158 ft 8 kts 249°
2026-05-07 14:45 52.35974 13.50372 158 ft 3 kts 249°
2026-05-07 14:45 52.35972 13.50362 158 ft 0 kts 249°